sat.trackr.live / text

‹ back to catalog

CENTAURI-8

NORAD 62714 · 2025-009DK

PAYLOAD ACTIVE UNKNOWN

§ Identity

Operator
Country
AUS
Launch date
2025-01-14
Launch site
AFWTR
Launch vehicle
Mass (kg)
RCS (m²)

External: N2YO · Heavens-Above · Gunter

§ Orbital elements

Epoch: 2026-05-25T02:32:48.117408Z

Period
96.15 min
Inclination
97.7050°
Eccentricity
0.0001745
Mean motion
14.97588252 rev/d
Perigee alt
573.1 km
Apogee alt
575.6 km
Semi-major
6,952.5 km
B*
3.2265e-4
RAAN
225.5249°
Arg perigee
150.0183°
Mean anomaly
210.1139°
Rev number
7,402

§ Raw data

CENTAURI-81 62714U 25009DK  26145.10611247  .00003712  00000+0  32265-3 0  99992 62714  97.7050 225.5249 0001745 150.0183 210.1139 14.97588252 74025

JSON: /api/v1/satellites/62714 · /tle

For live sub-satellite position, see the globe view (requires WebGL).

§ Visibility from observer

Set your observer location to see the next 7 days of passes ≥ 10°. The values pass through the URL so the page stays shareable.

No JS? Fill the form by hand. The geolocation button needs JavaScript.

§ Radio — SatNOGS DB

ModeDescriptionDownlinkUplink
FSK Mode U - FSK9k6 - Transmitter 400.220 MHz
BPSK S-band telemetry 2.275 GHz

2 transmitters · refreshed weekly from db.satnogs.org